Location: Newark
(48.6461°N, 4.3644°W)
Time: 05:44:41
(UTC+00:00)

Courier 1B Rocket - All Passes

Search period start: 24 January 2020 00:00
Search period end: 03 February 2020 00:00
Orbit: 920 x 1202 km, 28.2° (Epoch: 23 January)

Date Brightness Start Highest point End Pass type
(mag) Time Alt. Az. Time Alt. Az. Time Alt. Az.
24 Jan - 13:46:51 10° SSW 13:49:10 12° S 13:51:26 10° SSE daylight
25 Jan - 12:46:20 10° SSW 12:48:32 12° S 12:50:42 10° SSE daylight
25 Jan - 14:38:47 10° SSW 14:40:34 11° S 14:42:19 10° S daylight
26 Jan - 11:46:24 10° S 11:47:53 11° S 11:49:20 10° SSE daylight
26 Jan - 13:37:20 10° SSW 13:39:57 12° S 13:42:32 10° SSE daylight
27 Jan - 12:36:20 10° SSW 12:39:18 13° S 12:42:13 10° SSE daylight
28 Jan - 11:35:41 10° SSW 11:38:38 13° S 11:41:30 10° SSE daylight
28 Jan - 13:28:14 10° SSW 13:30:43 12° S 13:33:09 10° SSE daylight
29 Jan - 10:35:29 10° S 10:37:55 12° S 10:40:19 10° SSE daylight
29 Jan - 12:26:49 10° SSW 12:30:04 13° S 12:33:13 10° SSE daylight
30 Jan - 09:36:44 10° SSE 09:37:12 10° SSE 09:37:42 10° SSE daylight
30 Jan - 11:25:49 10° SSW 11:29:22 14° S 11:32:49 10° SSE daylight
30 Jan - 13:19:44 10° SSW 13:21:26 11° SSW 13:23:08 10° S daylight
31 Jan - 10:25:08 10° SSW 10:28:38 14° S 10:32:03 10° SE daylight
31 Jan - 12:17:41 10° SW 12:20:47 13° S 12:23:49 10° SSE daylight
01 Feb - 09:24:52 10° SSW 09:27:54 13° SSE 09:30:52 10° SE daylight
01 Feb - 11:16:21 10° SW 11:20:05 14° S 11:23:44 10° SSE daylight
02 Feb - 08:25:28 10° S 08:27:08 11° SSE 08:28:50 10° SSE daylight
02 Feb - 10:15:22 10° SSW 10:19:20 15° S 10:23:13 10° SSE daylight
02 Feb - 12:09:02 10° SW 12:11:28 12° SSW 12:13:53 10° S daylight
